User: anonymous   Login
Location: Caltech
(34.1382°N, 118.1253°W)
Time: 13:27:56
(UTC-07:00)
Language:

FENGYUN 3A - Orbit

View from above orbital plane
View from above orbital plane
View from above satellite
View from above satellite

Ground track
Ground track

The orbit data is extracted from the following two-line orbital elements,

1 32958U 08026A   16240.45344721 -.00000014  00000-0  12879-4 0  9993
2 32958  98.4461 277.2642 0010704  56.1553 304.0645 14.19628186427661
Epoch (UTC): 27 August 2016 10:52:57
Eccentricity: 0.0010704
inclination: 98.4461°
perigee height: 819 km
apogee height: 834 km
right ascension of ascending node: 277.2642°
argument of perigee: 56.1553°
revolutions per day: 14.19628186
mean anomaly at epoch: 304.0645°
orbit number at epoch: 42766

The dashed part of the orbit path shows where the satellite is in the earth's shadow,  

DLR